Radiation Dose at Monitoring Post of Fukushima Daini Nuclear Power Station
Date,Time,MP-1(microSv/h),MP-2(microSv/h),MP-3(microSv/h),MP-4(microSv/h),MP-5(microSv/h),MP-6(microSv/h),MP-7(microSv/h),Wind Direction,Wind Velocity(m/s),Rain
2014/04/21,00:00,0.8,0.5,0.8,0.7,0.7,0.3,0.3,south-southwest,8.4,No
2014/04/21,00:10,0.8,0.5,0.8,0.7,0.7,0.3,0.3,south-southwest,7.9,No
2014/04/21,00:20,0.8,0.5,0.8,0.7,0.7,0.3,0.3,south-southwest,8.4,No
2014/04/21,00:30,0.8,0.5,0.8,0.7,0.7,0.3,0.3,south,7.3,No
2014/04/21,00:40,0.8,0.5,0.8,0.7,0.7,0.3,0.3,south,6.8,No
2014/04/21,00:50,0.8,0.5,0.8,0.7,0.7,0.3,0.3,south,6.6,No
2014/04/21,01:00,0.8,0.5,0.8,0.7,0.7,0.3,0.3,south-southwest,6.8,No
2014/04/21,01:10,0.8,0.5,0.8,0.7,0.7,0.3,0.3,south,7.3,No
2014/04/21,01:20,0.8,0.5,0.8,0.7,0.7,0.3,0.3,south,6.9,No
2014/04/21,01:30,0.8,0.5,0.8,0.7,0.7,0.3,0.3,south,7.8,No
2014/04/21,01:40,0.8,0.5,0.8,0.7,0.7,0.3,0.3,south,7.2,No
2014/04/21,01:50,0.8,0.5,0.8,0.7,0.7,0.3,0.3,south,7.6,No
2014/04/21,02:00,0.8,0.5,0.8,0.7,0.7,0.3,0.3,south,5.8,No
2014/04/21,02:10,0.8,0.5,0.8,0.7,0.7,0.3,0.3,south,5.7,No
2014/04/21,02:20,0.8,0.5,0.8,0.7,0.7,0.3,0.3,south,6.2,No
2014/04/21,02:30,0.7,0.5,0.8,0.7,0.7,0.3,0.3,south-southwest,7.8,No
2014/04/21,02:40,0.8,0.5,0.8,0.7,0.7,0.3,0.3,south-southwest,9.4,No
2014/04/21,02:50,0.8,0.5,0.8,0.7,0.7,0.3,0.3,south-southwest,7.7,No
2014/04/21,03:00,0.8,0.5,0.8,0.7,0.7,0.3,0.3,south-southwest,8.7,No
2014/04/21,03:10,0.8,0.5,0.8,0.7,0.7,0.3,0.3,south-southwest,7.7,No
2014/04/21,03:20,0.8,0.5,0.8,0.7,0.7,0.3,0.3,south-southwest,7.7,No
2014/04/21,03:30,0.8,0.5,0.8,0.7,0.7,0.3,0.3,south-southwest,6.5,No
2014/04/21,03:40,0.8,0.5,0.8,0.7,0.7,0.3,0.3,south-southwest,7.8,No
2014/04/21,03:50,0.8,0.5,0.8,0.7,0.7,0.3,0.3,south-southwest,6.1,No
2014/04/21,04:00,0.8,0.5,0.8,0.7,0.7,0.3,0.3,south,4.8,No
2014/04/21,04:10,0.7,0.5,0.8,0.7,0.7,0.3,0.3,south-southwest,6.6,Yes
2014/04/21,04:20,0.8,0.5,0.8,0.7,0.7,0.3,0.3,south-southwest,6.7,Yes
2014/04/21,04:30,0.8,0.5,0.8,0.7,0.7,0.3,0.3,south-southwest,4.8,No
2014/04/21,04:40,0.8,0.5,0.8,0.7,0.7,0.3,0.3,southwest,4.9,No
2014/04/21,04:50,0.8,0.5,0.8,0.7,0.7,0.3,0.3,southwest,4.3,No
2014/04/21,05:00,0.8,0.5,0.8,0.7,0.7,0.3,0.3,southwest,4.6,No
2014/04/21,05:10,0.8,0.5,0.8,0.7,0.7,0.3,0.3,south-southwest,4.6,No
2014/04/21,05:20,0.8,0.5,0.8,0.7,0.7,0.3,0.3,south-southwest,5.3,No
2014/04/21,05:30,0.8,0.5,0.8,0.7,0.7,0.3,0.3,south-southwest,5.8,No
2014/04/21,05:40,0.8,0.5,0.8,0.7,0.7,0.3,0.3,south-southwest,5.4,No
2014/04/21,05:50,0.8,0.5,0.8,0.7,0.7,0.3,0.3,south-southwest,3.1,No
2014/04/21,06:00,0.8,0.5,0.8,0.7,0.7,0.3,0.3,south-southwest,3.5,No
2014/04/21,06:10,0.8,0.5,0.8,0.7,0.7,0.3,0.3,south-southwest,4.0,No
2014/04/21,06:20,0.8,0.5,0.8,0.7,0.7,0.3,0.3,south-southwest,5.5,No
2014/04/21,06:30,0.8,0.5,0.8,0.7,0.7,0.3,0.3,south-southwest,8.2,No
2014/04/21,06:40,0.8,0.5,0.8,0.7,0.7,0.3,0.3,south-southwest,7.5,No
2014/04/21,06:50,0.8,0.5,0.8,0.7,0.7,0.3,0.3,south-southwest,8.9,No
2014/04/21,07:00,0.8,0.5,0.8,0.7,0.7,0.3,0.3,south-southwest,8.3,No
2014/04/21,07:10,0.8,0.5,0.8,0.7,0.7,0.3,0.3,south-southwest,8.9,No
2014/04/21,07:20,0.8,0.5,0.8,0.7,0.7,0.3,0.3,south-southwest,6.6,No
2014/04/21,07:30,0.8,0.5,0.8,0.7,0.7,0.3,0.3,south-southwest,8.7,No
2014/04/21,07:40,0.8,0.5,0.8,0.7,0.7,0.3,0.3,south-southwest,8.9,No
2014/04/21,07:50,0.8,0.5,0.8,0.7,0.7,0.3,0.3,south-southwest,9.4,No
2014/04/21,08:00,0.8,0.5,0.8,0.7,0.7,0.3,0.3,south-southwest,8.9,No
2014/04/21,08:10,0.8,0.5,0.8,0.7,0.7,0.3,0.3,south-southwest,7.4,No
2014/04/21,08:20,0.8,0.5,0.8,0.7,0.7,0.3,0.3,south-southwest,8.9,No
2014/04/21,08:30,0.8,0.5,0.8,0.7,0.7,0.3,0.3,south-southwest,8.1,No
2014/04/21,08:40,0.8,0.5,0.8,0.7,0.7,0.3,0.3,south-southwest,8.9,No
2014/04/21,08:50,0.8,0.5,0.8,0.7,0.7,0.3,0.3,south-southwest,10.0,No
2014/04/21,09:00,0.8,0.5,0.8,0.7,0.7,0.3,0.3,south-southwest,11.1,Yes
2014/04/21,09:10,0.8,0.5,0.8,0.7,0.7,0.3,0.3,south-southwest,9.6,No
2014/04/21,09:20,0.8,0.5,0.8,0.7,0.7,0.3,0.3,south-southwest,9.0,No
2014/04/21,09:30,0.8,0.5,0.8,0.7,0.7,0.3,0.3,south-southwest,9.8,No
2014/04/21,09:40,0.8,0.5,0.8,0.7,0.7,0.3,0.3,south-southwest,10.9,Yes
2014/04/21,09:50,0.8,0.5,0.8,0.7,0.7,0.3,0.3,south-southwest,8.6,No
2014/04/21,10:00,0.8,0.5,0.8,0.7,0.7,0.3,0.3,south-southwest,9.8,No
2014/04/21,10:10,0.8,0.5,0.8,0.7,0.7,0.3,0.3,south-southwest,12.3,No
2014/04/21,10:20,0.8,0.5,0.8,0.7,0.7,0.3,0.3,south-southwest,10.2,No
2014/04/21,10:30,0.8,0.5,0.8,0.7,0.7,0.3,0.3,south-southwest,11.0,No
2014/04/21,10:40,0.8,0.5,0.8,0.7,0.7,0.3,0.3,south-southwest,11.8,No
2014/04/21,10:50,0.8,0.5,0.8,0.7,0.7,0.3,0.3,south-southwest,10.4,No
2014/04/21,11:00,0.8,0.5,0.8,0.7,0.7,0.3,0.3,south-southwest,7.8,No
2014/04/21,11:10,0.8,0.5,0.8,0.7,0.7,0.3,0.3,south-southwest,9.6,No
2014/04/21,11:20,0.8,0.5,0.8,0.7,0.7,0.3,0.3,south-southwest,11.2,No
2014/04/21,11:30,0.8,0.5,0.8,0.7,0.7,0.3,0.3,south-southwest,11.1,No
2014/04/21,11:40,0.8,0.5,0.8,0.7,0.7,0.3,0.3,south-southwest,11.8,No
2014/04/21,11:50,0.8,0.5,0.8,0.7,0.7,0.3,0.3,south-southwest,11.8,Yes
2014/04/21,12:00,0.8,0.5,0.8,0.7,0.7,0.3,0.3,south-southwest,11.6,Yes
2014/04/21,12:10,0.8,0.5,0.8,0.7,0.7,0.3,0.3,south-southwest,13.9,Yes
2014/04/21,12:20,0.8,0.5,0.8,0.7,0.7,0.3,0.3,south-southwest,13.4,Yes
2014/04/21,12:30,0.8,0.5,0.8,0.7,0.7,0.3,0.3,south-southwest,13.4,Yes
2014/04/21,12:40,0.8,0.5,0.8,0.7,0.7,0.3,0.3,south-southwest,12.3,Yes
2014/04/21,12:50,0.8,0.5,0.8,0.7,0.7,0.3,0.3,south-southwest,11.3,Yes
2014/04/21,13:00,0.8,0.5,0.8,0.7,0.7,0.3,0.3,south-southwest,10.3,Yes
2014/04/21,13:10,0.8,0.5,0.8,0.7,0.7,0.3,0.3,south-southwest,10.3,Yes
2014/04/21,13:20,0.8,0.5,0.8,0.7,0.7,0.3,0.3,south-southwest,9.4,Yes
2014/04/21,13:30,0.8,0.5,0.8,0.7,0.7,0.3,0.3,south-southwest,8.5,Yes
2014/04/21,13:40,0.8,0.5,0.8,0.7,0.7,0.3,0.3,south-southwest,7.3,Yes
2014/04/21,13:50,0.8,0.5,0.8,0.7,0.7,0.3,0.3,south-southwest,7.0,Yes
2014/04/21,14:00,0.8,0.5,0.8,0.7,0.7,0.3,0.3,south,6.4,Yes
2014/04/21,14:10,0.7,0.5,0.8,0.7,0.7,0.3,0.3,south-southwest,7.2,Yes
2014/04/21,14:20,0.7,0.5,0.8,0.7,0.7,0.3,0.3,south-southwest,8.7,Yes
2014/04/21,14:30,0.7,0.5,0.8,0.7,0.7,0.3,0.3,south-southwest,8.1,Yes
2014/04/21,14:40,0.7,0.5,0.8,0.7,0.7,0.3,0.3,south-southwest,7.0,No
2014/04/21,14:50,0.7,0.5,0.8,0.7,0.7,0.3,0.3,south-southwest,6.4,No
2014/04/21,15:00,0.7,0.5,0.8,0.7,0.7,0.3,0.3,south-southwest,5.4,No
2014/04/21,15:10,0.7,0.5,0.8,0.7,0.7,0.3,0.3,south-southwest,4.8,Yes
2014/04/21,15:20,0.7,0.5,0.8,0.7,0.7,0.3,0.3,south-southwest,5.3,Yes
2014/04/21,15:30,0.7,0.5,0.8,0.7,0.7,0.3,0.3,south-southwest,4.5,Yes
2014/04/21,15:40,0.7,0.5,0.8,0.7,0.7,0.3,0.3,south-southwest,3.6,No
2014/04/21,15:50,0.7,0.5,0.8,0.7,0.7,0.3,0.3,south-southwest,2.2,Yes
2014/04/21,16:00,0.7,0.5,0.8,0.7,0.7,0.3,0.3,south,1.9,Yes
2014/04/21,16:10,0.7,0.5,0.8,0.7,0.7,0.3,0.3,southwest,2.2,Yes
2014/04/21,16:20,0.7,0.5,0.8,0.7,0.7,0.3,0.3,west-southwest,2.0,Yes
2014/04/21,16:30,0.7,0.5,0.8,0.7,0.7,0.3,0.3,northwest,1.9,Yes
2014/04/21,16:40,0.7,0.5,0.8,0.7,0.7,0.3,0.3,west-northwest,1.4,Yes
2014/04/21,16:50,0.7,0.5,0.8,0.7,0.7,0.3,0.3,-,CALM,Yes
2014/04/21,17:00,0.7,0.5,0.8,0.7,0.7,0.3,0.3,west,0.8,Yes
2014/04/21,17:10,0.7,0.5,0.8,0.7,0.7,0.3,0.3,west-southwest,1.8,Yes
2014/04/21,17:20,0.7,0.5,0.8,0.7,0.7,0.3,0.3,northeast,0.5,Yes
2014/04/21,17:30,0.7,0.5,0.8,0.7,0.7,0.3,0.3,northeast,1.1,Yes
2014/04/21,17:40,0.7,0.5,0.8,0.7,0.7,0.3,0.3,north-northeast,0.6,Yes
2014/04/21,17:50,0.7,0.5,0.8,0.7,0.7,0.3,0.3,north,0.9,Yes
2014/04/21,18:00,0.7,0.5,0.8,0.7,0.7,0.3,0.3,north-northeast,1.9,Yes
2014/04/21,18:10,0.7,0.5,0.8,0.7,0.7,0.3,0.3,northeast,2.3,Yes
2014/04/21,18:20,0.7,0.5,0.8,0.7,0.7,0.3,0.3,north-northeast,5.5,Yes
2014/04/21,18:30,0.7,0.5,0.8,0.7,0.6,0.3,0.3,southeast,1.1,Yes
2014/04/21,18:40,0.7,0.5,0.8,0.7,0.7,0.3,0.3,east-northeast,2.0,Yes
2014/04/21,18:50,0.7,0.5,0.8,0.7,0.7,0.3,0.3,east-northeast,3.7,Yes
2014/04/21,19:00,0.7,0.5,0.8,0.7,0.6,0.3,0.3,northeast,1.7,Yes
2014/04/21,19:10,0.7,0.5,0.8,0.7,0.6,0.3,0.3,northeast,1.9,Yes
2014/04/21,19:20,0.7,0.5,0.8,0.7,0.6,0.3,0.3,east-southeast,2.8,Yes
2014/04/21,19:30,0.7,0.5,0.8,0.7,0.6,0.3,0.3,northeast,3.1,Yes
2014/04/21,19:40,0.7,0.5,0.8,0.7,0.6,0.3,0.3,northeast,1.8,Yes
2014/04/21,19:50,0.7,0.5,0.8,0.7,0.6,0.3,0.3,northeast,1.9,Yes
2014/04/21,20:00,0.7,0.5,0.8,0.7,0.6,0.3,0.3,east-northeast,2.0,Yes
2014/04/21,20:10,0.7,0.5,0.8,0.7,0.6,0.3,0.3,east-northeast,1.2,Yes
2014/04/21,20:20,0.7,0.5,0.8,0.7,0.6,0.3,0.3,south,1.7,Yes
2014/04/21,20:30,0.7,0.5,0.8,0.7,0.6,0.3,0.3,south-southwest,2.7,No
2014/04/21,20:40,0.7,0.5,0.8,0.7,0.6,0.3,0.3,south-southwest,3.1,No
2014/04/21,20:50,0.7,0.5,0.8,0.7,0.6,0.3,0.3,south-southwest,2.9,Yes
2014/04/21,21:00,0.7,0.5,0.8,0.7,0.6,0.3,0.3,south-southwest,3.1,Yes
2014/04/21,21:10,0.7,0.5,0.8,0.7,0.6,0.3,0.3,south,3.0,Yes
2014/04/21,21:20,0.7,0.5,0.8,0.7,0.6,0.3,0.3,south,2.5,Yes
2014/04/21,21:30,0.7,0.5,0.8,0.7,0.6,0.3,0.3,south,2.1,No
2014/04/21,21:40,0.7,0.5,0.8,0.7,0.6,0.3,0.3,south,2.6,Yes
2014/04/21,21:50,0.7,0.5,0.8,0.7,0.6,0.3,0.3,south-southwest,2.8,Yes
2014/04/21,22:00,0.7,0.5,0.8,0.7,0.6,0.3,0.3,south-southwest,2.7,Yes
2014/04/21,22:10,0.7,0.5,0.8,0.7,0.6,0.3,0.3,southwest,2.0,Yes
2014/04/21,22:20,0.7,0.5,0.8,0.7,0.6,0.3,0.3,west-southwest,2.0,Yes
2014/04/21,22:30,0.7,0.5,0.8,0.7,0.6,0.3,0.3,west-southwest,1.7,Yes
2014/04/21,22:40,0.7,0.5,0.8,0.7,0.6,0.3,0.3,west-southwest,1.8,Yes
2014/04/21,22:50,0.7,0.5,0.8,0.7,0.6,0.3,0.3,west-southwest,0.9,Yes
2014/04/21,23:00,0.7,0.5,0.8,0.7,0.6,0.3,0.3,west,0.8,Yes
2014/04/21,23:10,0.7,0.5,0.7,0.7,0.6,0.3,0.3,northwest,1.2,Yes
2014/04/21,23:20,0.7,0.5,0.8,0.7,0.6,0.3,0.3,north-northwest,1.6,Yes
2014/04/21,23:30,0.7,0.5,0.8,0.7,0.6,0.3,0.3,north-northwest,1.8,Yes
2014/04/21,23:40,0.7,0.5,0.7,0.7,0.6,0.3,0.3,north-northwest,2.1,Yes
2014/04/21,23:50,0.7,0.5,0.8,0.7,0.6,0.3,0.3,north-northwest,1.6,Yes
